TimeCST,TemperatureF,Dew PointF,Humidity,Sea Level PressureIn,VisibilityMPH,Wind Direction,Wind SpeedMPH,Gust SpeedMPH,PrecipitationIn,Events,Conditions,WindDirDegrees,DateUTC
12:00 AM,70,63,71,29.78,12,East,15.0,,,,Scattered Clouds,100,2012-11-09 06:00:00
12:00 AM,69.8,62.6,78,29.96,6.2,East,15.0,-,N/A,,Mostly Cloudy,100,2012-11-09 06:00:00
1:00 AM,69.8,62.6,78,29.93,6.2,East,9.2,20.7,N/A,,Light Drizzle,100,2012-11-09 07:00:00
2:00 AM,69.8,62.6,78,29.92,6.2,ENE,8.1,-,N/A,,Light Drizzle,60,2012-11-09 08:00:00
3:00 AM,70,62,69,29.76,12,ENE,13.8,,,,Scattered Clouds,70,2012-11-09 09:00:00
3:00 AM,69.8,62.6,78,29.92,6.2,ENE,13.8,-,N/A,,Mostly Cloudy,70,2012-11-09 09:00:00
4:00 AM,69.8,62.6,78,29.94,6.2,East,17.3,-,N/A,,Mostly Cloudy,90,2012-11-09 10:00:00
5:00 AM,69.8,62.6,78,29.95,6.2,East,13.8,-,N/A,,Scattered Clouds,90,2012-11-09 11:00:00
6:00 AM,70,61,67,29.83,12,East,11.5,,,Rain,Light Drizzle,100,2012-11-09 12:00:00
6:00 AM,69.8,60.8,73,29.97,6.2,East,11.5,-,N/A,,Light Drizzle,100,2012-11-09 12:00:00
7:00 AM,69.8,62.6,78,29.99,6.2,ENE,10.4,-,N/A,Rain,Rain,70,2012-11-09 13:00:00
8:00 AM,71.6,64.4,78,30.02,6.2,ENE,9.2,-,N/A,,Drizzle,60,2012-11-09 14:00:00
9:00 AM,72,64,68,29.86,6,SE,5.8,,,Rain,Drizzle,130,2012-11-09 15:00:00
9:00 AM,71.6,64.4,78,30.02,6.2,SE,5.8,-,N/A,,Drizzle,130,2012-11-09 15:00:00
10:00 AM,69.8,62.6,78,30.02,6.2,NE,6.9,-,N/A,,Light Drizzle,50,2012-11-09 16:00:00
11:00 AM,73.4,64.4,73,29.99,6.2,ENE,6.9,-,N/A,,Light Drizzle,70,2012-11-09 17:00:00
12:00 PM,75,64,59,29.83,9,ESE,5.8,,,,Overcast,110,2012-11-09 18:00:00
12:00 PM,75.2,64.4,69,29.96,6.2,ESE,5.8,-,N/A,,Mostly Cloudy,110,2012-11-09 18:00:00
1:00 PM,75.2,62.6,65,29.93,6.2,ESE,10.4,-,N/A,,Mostly Cloudy,120,2012-11-09 19:00:00
2:00 PM,75.2,60.8,61,29.91,6.2,East,9.2,-,N/A,,Mostly Cloudy,90,2012-11-09 20:00:00
3:00 PM,74,62,58,29.77,9,SE,5.8,,,,Overcast,130,2012-11-09 21:00:00
3:00 PM,75.2,64.4,69,29.90,6.2,SE,5.8,-,N/A,Rain,Light Rain,130,2012-11-09 21:00:00
4:00 PM,75.2,62.6,65,29.91,6.2,East,8.1,-,N/A,Rain,Light Rain,90,2012-11-09 22:00:00
5:00 PM,69.8,62.6,78,29.93,6.2,East,6.9,-,N/A,Rain,Light Rain,100,2012-11-09 23:00:00
6:00 PM,69,63,77,29.78,12,East,5.8,,,Rain,Light Rain,80,2012-11-10 00:00:00
6:00 PM,69.8,62.6,78,29.95,6.2,East,5.8,-,N/A,Rain,Light Rain,80,2012-11-10 00:00:00
7:00 PM,69.8,62.6,78,29.98,6.2,East,9.2,-,N/A,,Mostly Cloudy,100,2012-11-10 01:00:00
8:00 PM,71.6,60.8,69,30.00,6.2,East,9.2,-,N/A,,Scattered Clouds,90,2012-11-10 02:00:00
9:00 PM,71,61,62,29.85,12,East,9.2,,,,Scattered Clouds,90,2012-11-10 03:00:00
9:00 PM,69.8,60.8,73,30.00,6.2,East,9.2,-,N/A,,Scattered Clouds,90,2012-11-10 03:00:00
10:00 PM,69.8,60.8,73,29.99,-9999.0,East,11.5,-,N/A,,Clear,100,2012-11-10 04:00:00
11:00 PM,69.8,62.6,78,29.99,-9999.0,ENE,5.8,-,N/A,,Clear,60,2012-11-10 05:00:00